Dewpoint
59 59 59 59 59 59 59 59 59 59 59 59 59 59 59 59 58 53 39 45 47 70 71 57 57 56 54 53 53 50 46 38 33 31 30 29 26 29 42 41 49 50 52 57 60
59 59 59 59 59 59 59 59 59 59 59 59 59 59 59 59 45 32 55 70 70 72 57 52 50 49 46 46 45 46 42 38 35 34 33 32 28 27 33 40 49 50 57 58 60
59 59 59 59 59 59 59 59 58 58 58 58 58 59 59 57 36 30 67 69 71 72 48 46 41 42 40 38 35 36 37 37 36 35 34 33 29 29 28 31 39 49 57 59 60
59 59 59 59 59 59 58 58 58 58 58 58 58 58 59 44 21 48 68 70 70 59 48 40 35 38 35 26 23 23 22 24 26 25 29 33 32 28 29 30 31 40 57 60 60
59 59 59 59 59 59 58 58 57 57 57 57 57 59 52 33 24 54 71 69 55 60 38 39 36 35 31 23 18 17 18 16 17 19 23 30 29 26 27 28 30 40 57 59 59
59 59 58 58 58 58 58 57 57 57 57 57 58 58 39 18 20 38 48 52 47 48 37 35 32 29 28 25 24 21 19 18 17 15 17 20 23 24 27 28 34 46 54 56 58
58 58 58 58 58 58 57 56 56 56 57 58 60 49 30 19 26 35 43 43 42 40 32 29 29 28 27 25 25 25 25 23 20 18 14 15 16 20 23 25 26 44 51 54 57
57 58 57 57 57 57 56 55 56 56 58 59 59 44 26 21 17 18 25 32 28 19 20 25 20 22 27 26 23 22 21 18 18 17 17 15 16 12 14 16 26 32 44 52 55
56 57 57 57 57 56 55 55 56 56 58 57 51 41 20 29 18 19 20 16 14 19 26 25 25 17 18 21 20 18 12 13 16 18 19 19 16 16 13 16 23 26 27 45 53
56 56 56 56 56 55 54 54 55 53 55 46 40 31 23 17 19 19 18 21 17 17 27 29 27 21 18 17 15 16 14 12 15 18 20 19 19 17 17 15 17 17 24 35 50
57 56 55 56 55 54 51 37 29 33 25 19 19 20 17 19 19 18 18 18 18 19 17 21 22 20 19 20 20 19 18 18 17 15 21 21 22 22 19 18 18 20 23 29 49
57 56 55 55 54 53 49 26 29 29 25 18 18 18 18 18 17 17 19 17 18 15 14 14 14 18 19 17 13 13 16 18 20 18 18 18 22 21 22 24 19 19 23 31 46
56 56 55 54 53 48 29 29 32 31 26 18 16 16 15 16 16 16 17 18 18 18 15 14 10 12 13 12 14 15 17 17 16 18 18 20 23 25 23 23 19 20 23 29 45
56 55 54 52 48 39 32 34 32 30 25 18 16 16 15 16 17 17 17 18 15 15 16 14 11 12 12 11 9 13 13 13 13 15 15 21 16 26 25 24 21 21 21 25 44
56 55 53 51 46 36 39 35 30 30 20 16 14 16 14 13 14 17 19 18 17 16 15 15 12 12 14 12 12 13 11 12 14 14 17 20 18 22 24 24 23 21 22 22 39
55 54 52 48 45 38 35 32 30 23 18 14 12 13 11 12 12 13 16 21 19 19 20 18 19 16 14 11 11 12 13 16 16 13 13 19 14 16 18 23 23 22 23 30 35
54 52 49 42 34 32 32 31 23 16 18 16 14 13 10 12 10 13 15 18 18 24 23 19 18 15 14 14 15 12 12 12 14 12 11 16 12 17 19 20 23 26 35 42 41
52 51 48 39 38 35 34 26 25 18 14 17 16 13 12 13 12 12 14 15 19 22 22 19 18 20 19 20 21 19 15 13 17 11 10 17 15 16 19 22 28 34 39 40 42
51 41 35 36 38 37 28 22 22 21 19 17 16 17 16 16 13 14 15 14 17 24 26 22 21 22 20 21 20 19 15 11 12 15 10 10 18 24 22 23 24 27 35 41 50
43 35 31 32 37 34 24 26 21 20 20 20 19 19 17 18 17 16 15 16 16 23 25 25 24 23 22 21 20 25 22 14 13 18 16 13 20 18 30 27 26 25 32 51 56
43 29 34 30 32 30 22 23 21 24 24 23 22 21 21 22 19 19 16 16 22 25 25 22 25 27 25 21 20 22 22 29 28 27 27 16 16 29 31 40 37 41 50 57 60
35 28 34 32 28 28 21 24 29 21 27 24 26 24 23 24 25 23 19 23 24 25 24 26 25 25 23 23 26 21 40 41 27 39 39 34 28 43 45 35 46 51 59 62 65
34 29 32 30 25 24 26 20 21 22 24 27 27 27 28 28 28 26 26 25 25 26 29 30 25 22 22 20 33 32 34 41 33 31 35 34 38 43 47 49 55 58 62 64 65
35 28 30 30 28 27 26 25 22 25 24 25 29 29 29 29 31 30 28 26 26 28 49 39 29 30 23 26 26 26 28 27 27 26 35 36 37 42 47 49 54 59 61 62 64
38 33 33 25 28 29 28 25 21 21 26 27 29 28 29 31 30 28 28 29 28 42 32 31 33 33 30 27 24 23 21 20 22 27 38 37 43 43 49 50 55 58 61 60 60
36 35 35 29 33 30 29 26 22 20 22 23 28 27 29 31 30 31 32 32 30 29 30 33 35 35 32 27 24 23 21 20 21 21 30 30 33 47 55 55 57 58 58 58 61
41 38 35 35 30 29 24 25 24 25 24 23 23 26 28 26 33 33 30 29 28 30 35 38 37 36 32 28 26 25 23 27 27 33 33 36 48 53 52 54 58 59 59 59 59
Lifted_Index
14 15 15 15 15 15 15 15 15 15 15 15 15 14 14 13 12 10 9 9 8 5 3 1 1 -0 -1 -2 -2 -2 -2 -2 -1 -1 -1 -1 -1 -1 -2 -3 -3 -4 -5 -6 -6
15 15 15 15 15 16 16 15 15 15 15 15 15 14 14 13 11 10 9 9 7 4 2 2 2 1 1 -0 -1 -2 -2 -2 -1 -1 -1 -1 -1 -1 -1 -2 -3 -4 -5 -6 -6
15 15 16 16 16 16 16 16 15 15 15 15 15 14 14 12 10 8 7 7 5 3 3 4 4 3 3 2 2 1 -0 -1 -1 -1 -1 -0 -0 -0 -1 -1 -2 -4 -5 -6 -6
16 16 16 16 16 16 16 16 16 15 15 15 14 14 13 11 8 6 5 5 4 3 3 5 5 4 4 4 3 3 2 1 1 0 0 0 0 0 0 -0 -1 -3 -5 -6 -6
16 16 16 16 15 15 15 16 16 16 15 15 14 13 12 10 8 6 5 5 4 3 4 5 5 5 5 4 4 4 3 3 2 2 1 1 1 1 0 -0 -1 -3 -5 -6 -6
16 15 15 15 15 15 16 16 16 16 15 15 14 13 11 10 9 8 6 5 5 5 5 6 6 5 5 5 4 4 4 3 3 2 2 2 1 1 0 -0 -1 -2 -4 -6 -6
15 15 15 15 15 16 16 16 16 15 15 14 13 12 11 10 10 9 8 7 7 7 7 7 7 7 6 5 5 4 4 3 2 1 1 2 2 1 0 -0 -1 -1 -3 -5 -5
15 15 15 15 16 16 16 16 16 15 14 13 12 11 10 11 11 11 10 9 9 9 9 9 9 8 7 6 5 5 4 2 1 0 1 2 2 1 0 -0 0 0 -1 -3 -4
16 16 15 16 16 16 16 16 15 15 13 12 11 10 10 11 12 12 11 11 10 10 10 9 9 8 8 7 5 4 3 1 -0 -1 -0 1 1 1 0 0 1 1 1 -1 -3
16 16 16 16 16 16 15 15 14 14 12 11 10 10 10 11 11 11 11 11 11 10 9 9 8 8 7 6 5 3 2 1 -0 -0 -0 0 1 1 0 0 1 1 1 0 -2
16 16 16 16 16 15 15 14 13 12 11 11 11 10 11 11 11 11 11 11 10 9 9 8 7 6 6 5 4 4 3 2 1 0 -0 0 0 0 0 0 1 1 1 1 -1
16 16 16 16 15 15 14 13 13 12 11 11 11 11 11 11 10 10 10 10 9 8 7 7 6 5 5 5 4 4 4 3 2 1 0 -0 0 0 0 0 0 0 0 0 -0
16 16 16 16 14 13 13 14 14 12 10 10 11 11 10 10 10 10 10 9 8 7 7 6 5 5 5 5 4 4 4 3 2 1 0 -0 -0 -0 -0 -0 -0 -0 -0 -0 -1
16 16 16 15 13 13 13 13 14 12 9 8 10 10 10 10 9 10 10 9 8 7 6 5 5 5 5 4 4 4 3 3 2 1 -0 -0 -1 -0 -0 -0 -1 -1 -1 -1 -1
15 15 15 14 13 12 12 13 13 10 6 7 9 10 9 9 9 9 10 9 9 8 7 6 5 5 5 5 4 4 3 2 1 0 -0 -1 -1 -1 -1 -1 -1 -1 -1 -1 -1
15 15 15 14 13 12 12 12 10 7 5 7 9 9 9 8 9 9 9 9 8 7 6 6 5 5 5 5 4 3 3 2 1 -0 -1 -1 -1 -1 -1 -1 -1 -1 -0 -0 -1
14 14 14 13 12 12 12 10 7 5 6 7 8 8 8 8 8 8 8 7 7 7 6 5 3 3 4 4 3 2 1 0 -0 -1 -1 -1 -1 -1 -1 -1 -1 -0 -1 -1 -1
14 13 13 12 12 12 11 8 6 6 7 8 8 8 8 8 8 8 7 6 6 6 6 4 3 3 3 2 1 0 -0 -0 -1 -1 -1 -1 -1 -1 -1 -1 -0 -1 -1 -2 -2
13 12 11 11 11 11 10 7 6 7 8 8 8 7 7 7 7 7 6 6 6 6 6 5 4 4 3 1 0 -0 -0 -0 -1 -1 -1 -1 -1 -1 -1 -1 -0 -0 -1 -3 -4
12 11 10 11 11 10 9 8 8 8 9 8 8 7 7 7 7 6 6 6 6 6 6 5 5 4 3 1 0 -0 -0 -0 -0 -1 -1 -1 -0 -0 -1 -1 -1 -1 -2 -4 -6
11 10 10 10 10 9 8 8 8 9 9 8 7 7 7 6 6 6 5 6 6 6 6 5 4 4 3 1 0 -0 -0 -0 -0 -0 -0 -1 -1 -1 -1 -1 -2 -3 -5 -6 -7
10 9 9 10 9 8 8 8 9 8 8 7 7 7 6 6 6 5 5 5 5 6 5 5 4 3 2 1 -0 -0 -0 -0 -1 -0 -0 -1 -1 -1 -1 -2 -4 -6 -7 -8 -8
9 8 9 9 8 7 7 8 8 8 8 7 7 6 6 5 5 5 4 5 5 5 5 4 4 3 2 1 0 -0 -0 -1 -1 -1 -1 -1 -0 -0 -1 -2 -5 -7 -8 -8 -8
8 7 7 7 7 7 7 8 8 8 8 7 6 6 5 5 5 4 4 4 4 4 4 4 3 2 1 1 0 -0 -0 -0 -1 -1 -1 -1 -0 -0 0 -1 -5 -7 -7 -7 -7
7 7 7 7 7 7 7 7 7 7 7 7 6 6 5 5 4 4 4 4 4 4 4 3 2 1 1 1 0 -0 -0 -0 -0 -1 -1 -1 -1 -1 -1 -2 -5 -7 -7 -6 -6
7 7 7 7 7 7 7 7 7 7 7 7 6 5 5 5 4 4 4 4 4 4 3 2 1 1 0 0 0 -0 -0 -0 -0 -1 -1 -2 -2 -3 -3 -4 -5 -6 -6 -5 -5
7 7 7 7 7 7 7 7 7 7 7 7 7 6 5 5 4 4 4 4 4 4 3 1 1 1 0 -1 -1 -0 -0 -0 -1 -1 -2 -2 -3 -3 -4 -5 -5 -5 -5 -4 -4